Location: Thompson
(55.7500°N, 97.8670°W)
Time: 19:01:41
(UTC-05:00)

Amateur Radio Satellites - All Passes

Search period start: 26 June 2017 18:31
Search period end: 27 June 2017 18:31
Location: Thompson, 55.7500°N, 97.8670°W

Satellite Date Start Highest point End Downlink Frequencies (MHz)
Time Altitude Azimuth
PCSat 26 Jun 18:34:20 18:39:03 29° 16° (NNE) 18:43:46 145.827
DOVE 4 26 Jun 18:42:01 18:46:03 45° 262° (W) 18:50:19 437.250
SEEDS 26 Jun 18:44:37 18:47:41 20° 57° (ENE) 18:50:46 437.485
NUDT-PHONESAT 26 Jun 18:48:59 18:52:45 84° 255° (WSW) 18:56:32 437.300
KKS-1 26 Jun 19:00:01 19:04:32 76° 288° (WNW) 19:09:00 437.445
HO-68 26 Jun 19:00:27 19:07:30 61° 62° (ENE) 19:14:35 435.675
CUTE 1.7 + AOD 2 26 Jun 19:03:19 19:07:14 38° 65° (ENE) 19:11:10 437.475
CUTE-I 26 Jun 19:04:44 19:10:02 63° 257° (WSW) 19:15:23 437.470
XW-2F 26 Jun 19:08:32 19:12:13 45° 261° (W) 19:15:54 145.980 - 146.000
MOZHAYETS 4 26 Jun 19:13:12 19:15:58 16° 310° (NW) 19:18:42
XW-2D 26 Jun 19:13:31 19:17:07 38° 263° (W) 19:20:44 145.860 - 145.880
AO-73 26 Jun 19:16:14 19:18:54 15° 51° (NE) 19:21:35 145.935
XW-2A 26 Jun 19:20:20 19:23:32 36° 67° (ENE) 19:26:44 145.665 - 145.685
XW-2B 26 Jun 19:22:44 19:26:13 32° 264° (W) 19:29:42 145.730 - 145.750
STRAND 1 26 Jun 19:23:29 19:24:57 11° 80° (E) 19:26:24 437.568
LilacSat-2 26 Jun 19:23:32 19:26:59 31° 265° (W) 19:30:27 437.200
STARS 26 Jun 19:26:18 19:30:47 87° 283° (WNW) 19:35:14 437.465
CUBEBUG 2 26 Jun 19:26:39 19:31:00 39° 64° (ENE) 19:35:25 437.445
AAUSAT CUBESAT 2 26 Jun 19:31:26 19:34:52 26° 61° (ENE) 19:38:19 437.432
XW-2C 26 Jun 19:38:46 19:41:54 23° 267° (W) 19:45:03 145.795 - 145.815
RS-15 26 Jun 19:39:38 19:45:42 15° 90° (E) 19:51:46 29.354- 29.394
Oscar 11 26 Jun 19:41:31 19:44:28 18° 54° (NE) 19:47:24 .
KAITUO 1B 26 Jun 19:49:57 19:52:59 22° 268° (W) 19:56:00 145.475/437.950
ZACube-1 26 Jun 19:50:26 19:54:19 28° 60° (ENE) 19:58:12 437.345
CUBESAT XI-V 26 Jun 19:56:51 20:00:24 22° 304° (NW) 20:03:57 437.345
UWE-3 26 Jun 19:57:38 20:02:04 46° 66° (ENE) 20:06:33 435.000/436.395/437.385
SO-50 26 Jun 20:12:52 20:16:50 29° 11° (N) 20:20:48 436.795
PCSat 26 Jun 20:18:02 20:23:27 61° 40° (NE) 20:28:50 145.827
SEEDS 26 Jun 20:18:48 20:22:59 71° 258° (WSW) 20:27:11 437.485
NUDT-PHONESAT 26 Jun 20:26:03 20:27:17 11° 275° (W) 20:28:31 437.300
KKS-1 26 Jun 20:37:41 20:40:24 16° 310° (NW) 20:43:09 437.445
CUTE 1.7 + AOD 2 26 Jun 20:39:16 20:43:08 33° 265° (W) 20:47:01 437.475
AO-85 26 Jun 20:46:54 20:49:07 15° 116° (ESE) 20:51:19 145.980
DELFI C3 26 Jun 20:47:06 20:49:55 19° 58° (ENE) 20:52:45 145.870
CUTE-I 26 Jun 20:48:50 20:51:13 13° 278° (W) 20:53:36 437.470
HO-68 26 Jun 20:48:52 20:55:35 41° 264° (W) 21:02:21 435.675
AO-73 26 Jun 20:49:51 20:54:24 71° 71° (ENE) 20:58:59 145.935
XW-2A 26 Jun 20:53:29 20:56:22 24° 266° (W) 20:59:16 145.665 - 145.685
STRAND 1 26 Jun 21:00:11 21:05:18 57° 101° (ESE) 21:10:22 437.568
CUBEBUG 2 26 Jun 21:03:15 21:07:37 39° 264° (W) 21:12:07 437.445
STARS 26 Jun 21:03:34 21:06:33 18° 308° (NW) 21:09:32 437.465
AAUSAT CUBESAT 2 26 Jun 21:06:09 21:10:09 48° 261° (W) 21:14:09 437.432
Oscar 11 26 Jun 21:15:42 21:20:04 87° 259° (WSW) 21:24:27 .
FO-29 26 Jun 21:17:09 21:21:11 15° 75° (ENE) 21:25:12 435.910
ZACube-1 26 Jun 21:25:50 21:30:21 56° 260° (W) 21:34:54 437.345
EO-88 26 Jun 21:25:58 21:29:07 27° 63° (ENE) 21:32:18 145.990 - 145.960
UWE-3 26 Jun 21:34:29 21:38:40 32° 266° (W) 21:42:54 435.000/436.395/437.385
BEESAT 3 26 Jun 21:36:48 21:40:03 24° 120° (ESE) 21:43:21 437.485
YUBILEINY 26 Jun 21:38:08 21:45:37 33° 79° (E) 21:53:10 435.215
RS-15 26 Jun 21:43:25 21:54:56 51° 116° (ESE) 22:06:32 29.354- 29.394
O/OREOS (USA 219) 26 Jun 21:43:44 21:47:07 21° 104° (ESE) 21:50:30 437.305
LO-87 26 Jun 21:47:13 21:47:45 10° 51° (NE) 21:48:16 145.935 - 145.965
SO-50 26 Jun 21:53:34 21:58:04 59° 34° (NE) 22:02:33 436.795
SEEDS 26 Jun 21:58:19 21:59:29 11° 277° (W) 22:00:39 437.485
PCSat 26 Jun 22:01:42 22:06:42 38° 242° (WSW) 22:11:39 145.827
ESTCUBE 1 26 Jun 22:12:45 22:15:36 17° 52° (NE) 22:18:27 437.505/2401.250
M-CUBED/EXP-1 PRIME 26 Jun 22:15:46 22:16:46 11° 94° (E) 22:17:46 437.505
UNISAT 6 26 Jun 22:19:17 22:22:06 16° 85° (E) 22:24:52 437.425
DELFI C3 26 Jun 22:20:26 22:24:19 66° 257° (WSW) 22:28:15 145.870
AO-85 26 Jun 22:24:54 22:28:53 79° 137° (SE) 22:32:50 145.980
AO-73 26 Jun 22:27:40 22:31:06 21° 271° (W) 22:34:33 145.935
BEESAT 2 26 Jun 22:38:22 22:42:01 33° 124° (SE) 22:45:42 435.950
STRAND 1 26 Jun 22:39:44 22:44:16 32° 302° (WNW) 22:48:47 437.568
PRISM 26 Jun 22:40:08 22:43:05 19° 90° (E) 22:46:03 437.425
NO-84 26 Jun 22:51:53 22:55:12 25° 141° (SE) 22:58:42 435.350 FM
Oscar 11 26 Jun 22:54:30 22:56:54 14° 275° (W) 22:59:16 .
EO-88 26 Jun 22:59:17 23:02:43 36° 262° (W) 23:06:10 145.990 - 145.960
FO-29 26 Jun 23:00:26 23:08:00 52° 97° (E) 23:15:38 435.910
TIGRISAT 26 Jun 23:12:21 23:16:45 37° 96° (E) 23:21:01 435.000
BEESAT 3 26 Jun 23:13:18 23:17:19 70° 321° (NW) 23:21:22 437.485
LO-87 26 Jun 23:16:55 23:20:28 62° 70° (ENE) 23:24:02 145.935 - 145.965
O/OREOS (USA 219) 26 Jun 23:21:33 23:26:05 73° 304° (NW) 23:30:38 437.305
YUBILEINY 26 Jun 23:32:48 23:41:39 80° 283° (WNW) 23:50:35 435.215
SO-50 26 Jun 23:34:15 23:38:24 36° 235° (SW) 23:42:32 436.795
VELOX 1 26 Jun 23:43:23 23:47:04 27° 59° (ENE) 23:50:47 145.980
ESTCUBE 1 26 Jun 23:47:16 23:51:47 81° 71° (ENE) 23:56:18 437.505/2401.250
M-CUBED/EXP-1 PRIME 26 Jun 23:48:07 23:51:45 78° 114° (ESE) 23:55:39 437.505
SPROUT 26 Jun 23:53:12 23:57:01 32° 62° (ENE) 00:00:51 437.525
RS-15 26 Jun 23:54:36 00:07:00 79° 324° (NW) 00:19:23 29.354- 29.394
UNISAT 6 26 Jun 23:54:48 23:59:32 86° 100° (E) 00:04:10 437.425
DX 1 26 Jun 23:59:16 00:02:08 18° 53° (NE) 00:05:01 434.975-435.025
AIST 2D 27 Jun 00:03:55 00:06:25 18° 90° (E) 00:08:53 435.315
AO-85 27 Jun 00:06:06 00:09:38 31° 338° (NNW) 00:13:13 145.980
UKube-1 27 Jun 00:13:28 00:16:14 17° 52° (NE) 00:19:02 .
PRISM 27 Jun 00:14:42 00:18:47 65° 290° (WNW) 00:22:51 437.425
BEESAT 2 27 Jun 00:15:41 00:19:39 54° 326° (NW) 00:23:41 435.950
50 SAT 27 Jun 00:25:44 00:28:34 25° 63° (ENE) 00:31:25 437.505
POLYITAN 1 27 Jun 00:26:07 00:29:08 18° 89° (E) 00:32:07 437.675
NO-84 27 Jun 00:28:11 00:32:18 63° 161° (SSE) 00:36:36 435.350 FM
QB50P2 27 Jun 00:36:44 00:40:14 24° 92° (E) 00:43:42 145.880/145.840
FO-29 27 Jun 00:45:38 00:53:04 54° 298° (WNW) 01:00:39 435.910
TIGRISAT 27 Jun 00:49:05 00:53:28 40° 296° (WNW) 00:57:46 435.000
BEESAT 3 27 Jun 00:52:01 00:55:30 27° 343° (NNW) 00:59:00 437.485
LO-87 27 Jun 00:52:02 00:54:17 16° 271° (W) 00:56:34 145.935 - 145.965
EO-79 27 Jun 01:00:27 01:04:24 34° 96° (E) 01:08:19 145.935-145.965
O/OREOS (USA 219) 27 Jun 01:02:54 01:06:17 20° 327° (NNW) 01:09:40 437.305
DUCHIFAT 1 27 Jun 01:12:35 01:16:35 37° 97° (E) 01:20:31 145.980
VELOX 1 27 Jun 01:19:01 01:23:19 53° 259° (W) 01:27:39 145.980
NANOSAT C BR1 27 Jun 01:21:53 01:26:03 48° 100° (E) 01:30:11 145.865
M-CUBED/EXP-1 PRIME 27 Jun 01:23:26 01:25:52 17° 310° (NW) 01:28:25 437.505
ESTCUBE 1 27 Jun 01:26:09 01:29:09 17° 272° (W) 01:32:11 437.505/2401.250
SPROUT 27 Jun 01:28:47 01:32:51 41° 262° (W) 01:36:57 437.525
UNISAT 6 27 Jun 01:32:18 01:35:42 20° 306° (NW) 01:39:04 437.425
YUBILEINY 27 Jun 01:32:44 01:40:04 28° 310° (NW) 01:47:28 435.215
DX 1 27 Jun 01:33:26 01:37:46 89° 65° (ENE) 01:42:08 434.975-435.025
MOZHAYETS 4 27 Jun 01:34:14 01:35:18 11° 44° (NE) 01:36:23
AIST 2D 27 Jun 01:36:29 01:39:54 50° 290° (WNW) 01:43:19 435.315
UKube-1 27 Jun 01:47:23 01:51:42 86° 69° (ENE) 01:56:02 .
AO-85 27 Jun 01:47:53 01:51:02 22° 3° (N) 01:54:15 145.980
PRISM 27 Jun 01:51:30 01:53:20 13° 310° (NW) 01:55:10 437.425
BEESAT 2 27 Jun 01:54:45 01:58:09 25° 348° (NNW) 02:01:34 435.950
50 SAT 27 Jun 01:58:10 02:01:17 33° 262° (W) 02:04:25 437.505
Oscar 19 27 Jun 01:59:18 02:02:59 20° 88° (E) 02:06:39 437.125/150
POLYITAN 1 27 Jun 02:01:06 02:05:24 72° 289° (WNW) 02:09:40 437.675
ITUPSAT 1 27 Jun 02:04:48 02:08:38 24° 55° (NE) 02:12:29 437.325
NO-84 27 Jun 02:05:34 02:09:51 82° 183° (S) 02:14:15 435.350 FM
RS-15 27 Jun 02:09:04 02:21:16 57° 355° (N) 02:33:14 29.354- 29.394
QB50P2 27 Jun 02:12:07 02:16:20 54° 292° (WNW) 02:20:30 145.880/145.840
BEESAT 27 Jun 02:13:28 02:17:30 28° 57° (ENE) 02:21:32 436.000
BUGSAT 1 27 Jun 02:16:19 02:20:31 51° 100° (E) 02:24:39 437.445
BEESAT 3 27 Jun 02:30:51 02:34:09 23° 7° (N) 02:37:26 437.485
FO-29 27 Jun 02:31:23 02:36:39 21° 321° (NW) 02:42:03 435.910
EO-79 27 Jun 02:36:14 02:40:12 37° 296° (WNW) 02:44:09 145.935-145.965
O/OREOS (USA 219) 27 Jun 02:46:30 02:47:30 11° 352° (N) 02:48:30 437.305
DUCHIFAT 1 27 Jun 02:48:21 02:52:15 35° 297° (WNW) 02:56:07 145.980
KKS-1 27 Jun 02:57:29 02:57:37 10° 43° (NE) 02:57:46 437.445
NANOSAT C BR1 27 Jun 02:57:57 03:01:36 28° 300° (WNW) 03:05:14 145.865
Gurwin Techsat 1B 27 Jun 03:04:35 03:09:37 40° 97° (E) 03:14:37 435.225
MOZHAYETS 4 27 Jun 03:07:01 03:11:24 44° 65° (ENE) 03:15:49
DX 1 27 Jun 03:12:04 03:14:36 15° 273° (W) 03:17:09 434.975-435.025
UKube-1 27 Jun 03:25:45 03:28:21 15° 273° (W) 03:30:56 .
AO-85 27 Jun 03:28:38 03:32:21 37° 27° (NNE) 03:36:12 145.980
BEESAT 2 27 Jun 03:33:35 03:37:00 25° 12° (NNE) 03:40:26 435.950
YUBILEINY 27 Jun 03:37:36 03:41:00 12° 342° (NNW) 03:44:24 435.215
Oscar 19 27 Jun 03:37:50 03:43:00 85° 288° (WNW) 03:48:08 437.125/150
POLYITAN 1 27 Jun 03:38:08 03:40:29 15° 309° (NW) 03:42:51 437.675
ITUPSAT 1 27 Jun 03:41:15 03:46:03 73° 254° (WSW) 03:50:55 437.325
NO-84 27 Jun 03:43:07 03:47:21 51° 204° (SSW) 03:51:36 435.350 FM
QB50P2 27 Jun 03:49:42 03:51:15 12° 312° (NW) 03:52:48 145.880/145.840
BEESAT 27 Jun 03:50:15 03:54:59 61° 257° (WSW) 03:59:46 436.000
BUGSAT 1 27 Jun 03:52:04 03:55:39 27° 300° (WNW) 03:59:14 437.445
CUBESAT XI-V 27 Jun 03:52:47 03:56:46 29° 60° (ENE) 04:00:45 437.345
BEESAT 3 27 Jun 04:08:42 04:12:35 43° 30° (NNE) 04:16:27 437.485
AO-7 27 Jun 04:09:06 04:16:17 30° 91° (E) 04:23:24 .
FO-29 27 Jun 04:18:20 04:19:02 10° 345° (NNW) 04:19:43 435.910
ITAMSAT 1 27 Jun 04:18:58 04:23:29 28° 93° (E) 04:27:58 435.822/435.867
RS-15 27 Jun 04:23:29 04:35:53 69° 27° (NNE) 04:47:47 29.354- 29.394
O/OREOS (USA 219) 27 Jun 04:26:56 04:29:00 13° 19° (NNE) 04:31:04 437.305
KKS-1 27 Jun 04:28:56 04:33:07 42° 64° (ENE) 04:37:20 437.445
MOZHAYETS 4 27 Jun 04:44:30 04:48:42 33° 265° (W) 04:52:55
Gurwin Techsat 1B 27 Jun 04:44:36 04:49:40 45° 297° (WNW) 04:54:42 435.225
STARS 27 Jun 04:54:08 04:58:08 35° 62° (ENE) 05:02:10 437.465
AO-85 27 Jun 05:08:59 05:12:57 60° 228° (SW) 05:17:07 145.980
BEESAT 2 27 Jun 05:11:28 05:15:30 55° 35° (NE) 05:19:31 435.950
STRAND 1 27 Jun 05:11:40 05:11:59 10° 37° (NE) 05:12:18 437.568
Oscar 19 27 Jun 05:17:58 05:21:41 21° 309° (NW) 05:25:24 437.125/150
NO-84 27 Jun 05:21:15 05:24:18 19° 224° (SW) 05:27:19 435.350 FM
ITUPSAT 1 27 Jun 05:22:24 05:24:47 13° 276° (W) 05:27:09 437.325
CUBESAT XI-V 27 Jun 05:29:27 05:33:58 52° 260° (W) 05:38:30 437.345
BEESAT 27 Jun 05:32:25 05:33:47 11° 278° (W) 05:35:10 436.000
YUBILEINY 27 Jun 05:39:52 05:43:17 12° 18° (NNE) 05:46:41 435.215
BEESAT 3 27 Jun 05:46:22 05:50:15 46° 232° (SW) 05:54:05 437.485
ITAMSAT 1 27 Jun 05:58:09 06:03:21 62° 293° (WNW) 06:08:30 435.822/435.867
AO-7 27 Jun 06:01:38 06:10:05 87° 295° (WNW) 06:18:29 .
KKS-1 27 Jun 06:05:47 06:09:48 33° 264° (W) 06:13:51 437.445
O/OREOS (USA 219) 27 Jun 06:05:47 06:09:51 32° 43° (NE) 06:13:52 437.305
Gurwin Techsat 1B 27 Jun 06:26:09 06:28:26 13° 319° (NW) 06:30:43 435.225
STARS 27 Jun 06:30:20 06:34:28 39° 262° (W) 06:38:38 437.465
DOVE 4 27 Jun 06:32:08 06:36:27 31° 94° (E) 06:40:56 437.250
XW-2F 27 Jun 06:34:26 06:36:05 12° 86° (E) 06:37:42 145.980 - 146.000
RS-15 27 Jun 06:36:36 06:48:36 64° 237° (WSW) 07:00:03 29.354- 29.394
XW-2D 27 Jun 06:39:14 06:41:26 15° 87° (E) 06:43:38 145.860 - 145.880
STRAND 1 27 Jun 06:45:11 06:49:49 35° 59° (ENE) 06:54:28 437.568
XW-2B 27 Jun 06:48:02 06:50:36 17° 89° (E) 06:53:08 145.730 - 145.750
LilacSat-2 27 Jun 06:49:19 06:52:03 19° 90° (E) 06:54:47 437.200
BEESAT 2 27 Jun 06:49:27 06:53:09 33° 235° (SW) 06:56:48 435.950
AO-85 27 Jun 06:51:12 06:52:37 12° 247° (WSW) 06:54:04 145.980
XW-2C 27 Jun 07:03:14 07:06:22 24° 93° (E) 07:09:26 145.795 - 145.815
KAITUO 1B 27 Jun 07:12:59 07:16:02 23° 93° (E) 07:19:03 145.475/437.950
CUTE-I 27 Jun 07:14:04 07:18:50 31° 93° (E) 07:23:34 437.470
YUBILEINY 27 Jun 07:36:48 07:44:12 28° 50° (NE) 07:51:32 435.215
FO-29 27 Jun 07:38:41 07:43:08 19° 36° (NE) 07:47:51 435.910
ITAMSAT 1 27 Jun 07:38:44 07:41:55 16° 314° (NW) 07:45:05 435.822/435.867
O/OREOS (USA 219) 27 Jun 07:45:07 07:49:31 55° 245° (WSW) 07:53:53 437.305
NUDT-PHONESAT 27 Jun 07:45:46 07:49:23 47° 99° (E) 07:52:57 437.300
AO-7 27 Jun 07:54:48 08:02:03 34° 318° (NW) 08:09:17 .
SEEDS 27 Jun 07:56:25 07:58:16 13° 85° (E) 08:00:06 437.485
XW-2F 27 Jun 08:07:01 08:10:48 87° 287° (WNW) 08:14:33 145.980 - 146.000
HO-68 27 Jun 08:07:31 08:13:48 31° 92° (E) 08:20:02 435.675
XW-2A 27 Jun 08:08:10 08:10:05 14° 89° (E) 08:11:58 145.665 - 145.685
DOVE 4 27 Jun 08:09:40 08:14:21 52° 292° (WNW) 08:19:15 437.250
XW-2D 27 Jun 08:12:20 08:16:08 73° 287° (WNW) 08:19:52 145.860 - 145.880
CUTE 1.7 + AOD 2 27 Jun 08:16:12 08:19:47 26° 93° (E) 08:23:21 437.475
XW-2B 27 Jun 08:21:25 08:25:11 62° 288° (WNW) 08:28:54 145.730 - 145.750
LilacSat-2 27 Jun 08:22:57 08:26:42 56° 289° (WNW) 08:30:24 437.200
STRAND 1 27 Jun 08:23:52 08:28:52 51° 260° (W) 08:33:56 437.568
XW-2C 27 Jun 08:37:08 08:40:45 43° 292° (WNW) 08:44:20 145.795 - 145.815
AAUSAT CUBESAT 2 27 Jun 08:41:12 08:43:54 17° 88° (E) 08:46:35 437.432
TIGRISAT 27 Jun 08:43:25 08:46:23 17° 51° (NE) 08:49:23 435.000
CUBEBUG 2 27 Jun 08:46:12 08:50:26 31° 93° (E) 08:54:34 437.445
KAITUO 1B 27 Jun 08:46:40 08:50:13 42° 292° (WNW) 08:53:44 145.475/437.950
RS-15 27 Jun 08:50:14 08:58:32 22° 263° (W) 09:06:37 29.354- 29.394
CUTE-I 27 Jun 08:53:55 08:59:14 58° 294° (WNW) 09:04:30 437.470
Oscar 11 27 Jun 08:57:20 08:58:41 11° 83° (E) 09:00:01 .
ZACube-1 27 Jun 09:07:10 09:10:26 19° 88° (E) 09:13:38 437.345
M-CUBED/EXP-1 PRIME 27 Jun 09:07:14 09:10:22 45° 61° (ENE) 09:13:33 437.505
ISS 27 Jun 09:13:33 09:14:48 12° 144° (SE) 09:16:02 437.550
UWE-3 27 Jun 09:15:58 09:20:14 35° 95° (E) 09:24:23 435.000/436.395/437.385
NUDT-PHONESAT 27 Jun 09:20:07 09:23:04 23° 299° (WNW) 09:26:01 437.300
FO-29 27 Jun 09:20:19 09:26:34 50° 60° (ENE) 09:33:36 435.910
UNISAT 6 27 Jun 09:24:31 09:28:40 32° 61° (ENE) 09:32:52 437.425
SEEDS 27 Jun 09:30:28 09:34:40 82° 103° (ESE) 09:38:50 437.485
YUBILEINY 27 Jun 09:33:40 09:42:35 80° 76° (ENE) 09:51:26 435.215
PRISM 27 Jun 09:36:01 09:39:45 36° 64° (ENE) 09:43:30 437.425
XW-2A 27 Jun 09:39:48 09:43:14 64° 288° (WNW) 09:46:35 145.665 - 145.685
XW-2F 27 Jun 09:42:22 09:44:23 14° 306° (NW) 09:46:23 145.980 - 146.000
AO-7 27 Jun 09:47:28 09:52:32 18° 344° (NNW) 09:57:37 .
XW-2D 27 Jun 09:48:04 09:49:39 12° 307° (NW) 09:51:15 145.860 - 145.880
DOVE 4 27 Jun 09:49:01 09:51:08 13° 312° (NW) 09:53:18 437.250
CUTE 1.7 + AOD 2 27 Jun 09:51:47 09:55:50 47° 293° (WNW) 09:59:52 437.475
DELFI C3 27 Jun 09:52:13 09:52:50 10° 84° (E) 09:53:27 145.870
HO-68 27 Jun 09:55:01 10:02:14 77° 294° (WNW) 10:09:23 435.675
XW-2B 27 Jun 09:57:38 09:58:38 11° 309° (NW) 09:59:37 145.730 - 145.750
LilacSat-2 27 Jun 09:59:40 10:00:11 10° 310° (NW) 10:00:42 437.200
QB50P2 27 Jun 10:04:51 10:05:15 10° 46° (NE) 10:05:39 145.880/145.840
Tancredo 1 27 Jun 10:05:46 10:08:22 26° 162° (SSE) 10:10:58 437.200
AO-73 27 Jun 10:06:28 10:10:53 53° 100° (E) 10:15:10 145.935
AAUSAT CUBESAT 2 27 Jun 10:15:44 10:19:52 73° 288° (WNW) 10:23:58 437.432
TIGRISAT 27 Jun 10:17:42 10:22:22 76° 71° (ENE) 10:27:06 435.000
EO-88 27 Jun 10:21:33 10:23:17 13° 87° (E) 10:25:01 145.990 - 145.960
CUBEBUG 2 27 Jun 10:22:40 10:27:15 48° 293° (WNW) 10:31:43 437.445
EO-79 27 Jun 10:26:38 10:28:47 14° 50° (NE) 10:30:56 145.935-145.965
Oscar 11 27 Jun 10:31:19 10:35:40 70° 103° (ESE) 10:39:57 .
CUTE-I 27 Jun 10:35:07 10:38:18 16° 315° (NW) 10:41:30 437.470
DUCHIFAT 1 27 Jun 10:38:04 10:40:20 14° 51° (NE) 10:42:37 145.980
ZACube-1 27 Jun 10:42:43 10:47:14 72° 288° (WNW) 10:51:38 437.345
M-CUBED/EXP-1 PRIME 27 Jun 10:42:44 10:45:06 18° 261° (W) 10:47:29 437.505
AIST 2D 27 Jun 10:45:11 10:48:01 23° 62° (ENE) 10:50:52 435.315
NANOSAT C BR1 27 Jun 10:46:59 10:49:49 18° 54° (NE) 10:52:41 145.865
ISS 27 Jun 10:47:37 10:50:33 30° 163° (SSE) 10:53:30 437.550
UWE-3 27 Jun 10:52:24 10:56:45 40° 296° (WNW) 11:01:00 435.000/436.395/437.385
UNISAT 6 27 Jun 11:00:45 11:05:15 47° 261° (W) 11:09:50 437.425
FO-29 27 Jun 11:05:31 11:11:43 48° 265° (W) 11:18:44 435.910
SEEDS 27 Jun 11:07:03 11:09:52 18° 305° (NW) 11:12:41 437.485
PRISM 27 Jun 11:11:25 11:15:05 32° 264° (W) 11:18:47 437.425
DELFI C3 27 Jun 11:24:25 11:28:23 72° 104° (ESE) 11:32:19 145.870
POLYITAN 1 27 Jun 11:25:14 11:29:08 35° 63° (ENE) 11:33:05 437.675
YUBILEINY 27 Jun 11:31:07 11:38:37 33° 281° (W) 11:46:05 435.215
ESTCUBE 1 27 Jun 11:34:36 11:35:27 10° 82° (E) 11:36:18 437.505/2401.250
QB50P2 27 Jun 11:35:59 11:40:03 45° 66° (ENE) 11:44:10 145.880/145.840
AO-7 27 Jun 11:37:31 11:42:20 17° 12° (NNE) 11:47:08 .
BUGSAT 1 27 Jun 11:39:21 11:42:08 18° 54° (NE) 11:44:58 437.445
Tancredo 1 27 Jun 11:40:41 11:43:32 37° 181° (S) 11:46:23 437.200
AO-73 27 Jun 11:43:05 11:46:53 27° 300° (WNW) 11:50:35 145.935
HO-68 27 Jun 11:43:21 11:49:03 27° 317° (NW) 11:54:45 435.675
Oscar 19 27 Jun 11:46:53 11:49:47 15° 45° (NE) 11:52:39 437.125/150
AAUSAT CUBESAT 2 27 Jun 11:52:32 11:54:39 14° 308° (NW) 11:56:45 437.432
EO-88 27 Jun 11:53:50 11:57:31 80° 284° (WNW) 12:01:09 145.990 - 145.960
TIGRISAT 27 Jun 11:56:11 11:59:35 20° 272° (W) 12:03:03 435.000
EO-79 27 Jun 11:59:33 12:03:48 67° 71° (ENE) 12:08:05 145.935-145.965
CUBEBUG 2 27 Jun 12:01:05 12:02:48 12° 315° (NW) 12:04:32 437.445
Oscar 11 27 Jun 12:08:09 12:11:24 21° 303° (WNW) 12:14:39 .
LO-87 27 Jun 12:09:56 12:13:08 28° 95° (E) 12:16:18 145.935 - 145.965
DUCHIFAT 1 27 Jun 12:11:04 12:15:17 71° 72° (ENE) 12:19:34 145.980
AIST 2D 27 Jun 12:17:39 12:21:02 42° 261° (W) 12:24:28 435.315
ZACube-1 27 Jun 12:20:11 12:22:46 15° 309° (NW) 12:25:19 437.345
NANOSAT C BR1 27 Jun 12:20:43 12:24:59 88° 245° (WSW) 12:29:18 145.865
ISS 27 Jun 12:23:32 12:26:39 40° 183° (S) 12:29:46 437.550
PCSat 27 Jun 12:50:07 12:55:11 42° 119° (ESE) 13:00:17 145.827
Gurwin Techsat 1B 27 Jun 12:54:35 12:59:03 29° 56° (NE) 13:03:34 435.225
FO-29 27 Jun 12:56:43 12:58:54 12° 289° (WNW) 13:01:08 435.910
DELFI C3 27 Jun 13:00:00 13:02:44 18° 303° (WNW) 13:05:27 145.870
POLYITAN 1 27 Jun 13:00:56 13:04:55 37° 263° (W) 13:08:57 437.675
VELOX 1 27 Jun 13:01:52 13:04:57 18° 89° (E) 13:08:02 145.980
SPROUT 27 Jun 13:06:57 13:10:18 21° 91° (E) 13:13:38 437.525
ESTCUBE 1 27 Jun 13:08:44 13:13:12 62° 102° (ESE) 13:17:40 437.505/2401.250
QB50P2 27 Jun 13:12:19 13:16:02 28° 266° (W) 13:19:47 145.880/145.840
BUGSAT 1 27 Jun 13:12:46 13:16:58 87° 256° (WSW) 13:21:14 437.445
Tancredo 1 27 Jun 13:16:10 13:18:40 23° 201° (SSW) 13:21:10 437.200
Oscar 19 27 Jun 13:23:07 13:28:09 58° 67° (ENE) 13:33:13 437.125/150
AO-7 27 Jun 13:25:45 13:32:39 30° 38° (NE) 13:39:32 .
EO-88 27 Jun 13:28:56 13:30:35 13° 306° (NW) 13:32:14 145.990 - 145.960
HO-68 27 Jun 13:31:56 13:34:31 12° 342° (NNW) 13:37:06 435.675
EO-79 27 Jun 13:36:52 13:40:00 20° 270° (W) 13:43:10 145.935-145.965
LO-87 27 Jun 13:43:17 13:46:38 35° 294° (WNW) 13:49:58 145.935 - 145.965
DUCHIFAT 1 27 Jun 13:48:27 13:51:27 18° 271° (W) 13:54:28 145.980
SO-50 27 Jun 13:57:57 13:59:28 12° 110° (ESE) 14:00:59 436.795
NANOSAT C BR1 27 Jun 13:59:04 14:01:23 14° 274° (W) 14:03:42 145.865
ISS 27 Jun 13:59:58 14:02:40 24° 203° (SSW) 14:05:23 437.550
ITAMSAT 1 27 Jun 14:06:46 14:10:37 21° 50° (NE) 14:14:30 435.822/435.867
PCSat 27 Jun 14:33:09 14:38:31 57° 322° (NW) 14:43:54 145.827
Gurwin Techsat 1B 27 Jun 14:33:22 14:38:40 68° 256° (WSW) 14:44:00 435.225
VELOX 1 27 Jun 14:37:29 14:41:56 76° 290° (WNW) 14:46:23 145.980
SPROUT 27 Jun 14:42:19 14:46:35 61° 291° (WNW) 14:50:50 437.525
50 SAT 27 Jun 14:45:24 14:48:51 80° 106° (ESE) 14:52:15 437.505
ESTCUBE 1 27 Jun 14:46:05 14:49:42 24° 302° (WNW) 14:53:19 437.505/2401.250
DX 1 27 Jun 14:50:01 14:54:21 58° 102° (ESE) 14:58:40 434.975-435.025
BUGSAT 1 27 Jun 14:50:50 14:53:00 14° 274° (W) 14:55:12 437.445
UKube-1 27 Jun 15:02:41 15:06:57 54° 102° (ESE) 15:11:12 .
Oscar 19 27 Jun 15:03:21 15:07:49 29° 267° (W) 15:12:18 437.125/150
AO-7 27 Jun 15:16:02 15:24:20 75° 62° (ENE) 15:32:43 .
HO-68 27 Jun 15:18:06 15:19:17 10° 9° (N) 15:20:27 435.675
SO-50 27 Jun 15:34:35 15:39:01 55° 131° (SE) 15:43:27 436.795
ITUPSAT 1 27 Jun 15:34:51 15:38:06 18° 88° (E) 15:41:19 437.325
BEESAT 27 Jun 15:43:07 15:46:44 21° 90° (E) 15:50:19 436.000
ITAMSAT 1 27 Jun 15:44:14 15:49:28 86° 71° (ENE) 15:54:45 435.822/435.867
DOVE 4 27 Jun 16:10:29 16:12:27 13° 48° (NE) 16:14:29 437.250
VELOX 1 27 Jun 16:15:03 16:17:44 16° 309° (NW) 16:20:23 145.980
Gurwin Techsat 1B 27 Jun 16:16:57 16:19:39 14° 277° (W) 16:22:23 435.225
PCSat 27 Jun 16:18:18 16:22:58 28° 346° (NNW) 16:27:38 145.827
50 SAT 27 Jun 16:19:21 16:21:10 14° 304° (NW) 16:22:58 437.505
SPROUT 27 Jun 16:19:45 16:21:41 13° 311° (NW) 16:23:39 437.525
DX 1 27 Jun 16:26:40 16:30:16 25° 302° (WNW) 16:33:51 434.975-435.025
MOZHAYETS 4 27 Jun 16:31:15 16:35:30 35° 96° (E) 16:39:42
UKube-1 27 Jun 16:39:08 16:42:45 26° 301° (WNW) 16:46:21 .
HO-68 27 Jun 16:59:38 17:04:23 19° 35° (NE) 17:09:09 435.675
NUDT-PHONESAT 27 Jun 17:00:58 17:02:13 11° 52° (NE) 17:03:28 437.300
CUTE-I 27 Jun 17:05:05 17:09:14 24° 52° (NE) 17:13:25 437.470
AO-7 27 Jun 17:10:17 17:17:50 37° 265° (W) 17:25:27 .
ITUPSAT 1 27 Jun 17:11:45 17:16:36 86° 289° (WNW) 17:21:24 437.325
SO-50 27 Jun 17:15:17 17:19:39 44° 333° (NNW) 17:23:59 436.795
CUBESAT XI-V 27 Jun 17:18:24 17:22:10 24° 91° (E) 17:25:54 437.345
BEESAT 27 Jun 17:20:14 17:25:03 74° 290° (WNW) 17:29:48 436.000
XW-2F 27 Jun 17:21:52 17:24:39 20° 59° (ENE) 17:27:26 145.980 - 146.000
ITAMSAT 1 27 Jun 17:25:51 17:29:38 20° 272° (W) 17:33:26 435.822/435.867
XW-2D 27 Jun 17:27:11 17:30:13 23° 60° (ENE) 17:33:15 145.860 - 145.880
XW-2B 27 Jun 17:36:02 17:39:14 26° 62° (ENE) 17:42:28 145.730 - 145.750
LilacSat-2 27 Jun 17:37:56 17:41:16 28° 63° (ENE) 17:44:36 437.200
CUTE 1.7 + AOD 2 27 Jun 17:44:16 17:44:45 10° 47° (NE) 17:45:15 437.475
DOVE 4 27 Jun 17:45:05 17:49:17 61° 69° (ENE) 17:53:42 437.250
KKS-1 27 Jun 17:48:35 17:52:30 29° 94° (E) 17:56:25 437.445
XW-2C 27 Jun 17:51:16 17:54:47 35° 65° (ENE) 17:58:18 145.795 - 145.815
KAITUO 1B 27 Jun 17:59:44 18:03:09 33° 65° (ENE) 18:06:35 145.475/437.950
PCSat 27 Jun 18:03:19 18:07:56 27° 12° (NNE) 18:12:32 145.827
MOZHAYETS 4 27 Jun 18:08:26 18:12:45 40° 296° (WNW) 18:17:01
STARS 27 Jun 18:11:58 18:15:33 23° 92° (E) 18:19:07 437.465
CUBEBUG 2 27 Jun 18:17:21 18:19:45 14° 48° (NE) 18:22:11 437.445
